• în România
  • Lista ţărilor
  • Pe 7 zile
  • Temperatura apei
  • Hartă satelitară
  • Meteo pe hartă
  • Widget-uri
  • user-avatar
    Intrare

    Meteo pe oră la Melbourne

    Astăzi, 22 Februarie, Miercuri

    Timp Temperatura Precipitaţii Vânt Presiune Umiditate
    00:00 +15°C° 0 mm 2 m/s 762 mmHg 62%
    01:00 +15°C° 0 mm 2 m/s 761 mmHg 57%
    02:00 +15°C° 0 mm 2 m/s 761 mmHg 56%
    03:00 +15°C° 0 mm 2 m/s 761 mmHg 54%
    04:00 +15°C° 0 mm 2 m/s 760 mmHg 52%
    05:00 +16°C° 0 mm 2 m/s 760 mmHg 51%
    06:00 +16°C° 0 mm 2 m/s 760 mmHg 49%
    07:00 +17°C° 0 mm 3 m/s 760 mmHg 47%
    08:00 +20°C° 0 mm 3 m/s 760 mmHg 42%
    09:00 +23°C° 0 mm 4 m/s 759 mmHg 36%
    10:00 +27°C° 0 mm 4 m/s 759 mmHg 28%
    11:00 +29°C° 0 mm 4 m/s 759 mmHg 26%
    12:00 +30°C° 0 mm 4 m/s 758 mmHg 23%
    13:00 +33°C° 0 mm 4 m/s 757 mmHg 21%
    14:00 +33°C° 0 mm 4 m/s 757 mmHg 20%
    15:00 +34°C° 0 mm 4 m/s 756 mmHg 18%
    16:00 +35°C° 0 mm 4 m/s 755 mmHg 17%
    17:00 +33°C° 0 mm 3 m/s 755 mmHg 21%
    18:00 +30°C° 0 mm 3 m/s 755 mmHg 25%
    19:00 +28°C° 0 mm 2 m/s 755 mmHg 29%
    20:00 +27°C° 0 mm 3 m/s 755 mmHg 29%
    21:00 +26°C° 0 mm 3 m/s 755 mmHg 30%
    22:00 +26°C° 0 mm 3 m/s 756 mmHg 30%
    23:00 +23°C° 0 mm 2 m/s 756 mmHg 42%

    Mâine, 23 Februarie, Joi

    Timp Temperatura Precipitaţii Vânt Presiune Umiditate
    00:00 +20°C° 0 mm 2 m/s 757 mmHg 54%
    01:00 +18°C° 0 mm 1 m/s 758 mmHg 66%
    02:00 +18°C° 0 mm 1 m/s 758 mmHg 69%
    03:00 +16°C° 0 mm 1 m/s 758 mmHg 72%
    04:00 +16°C° 0 mm 1 m/s 759 mmHg 75%
    05:00 +18°C° 0 mm 1 m/s 759 mmHg 73%
    06:00 +18°C° 0 mm 1 m/s 760 mmHg 71%
    07:00 +18°C° 0 mm 2 m/s 760 mmHg 68%
    08:00 +20°C° 0 mm 2 m/s 761 mmHg 62%
    09:00 +23°C° 0 mm 2 m/s 761 mmHg 56%
    10:00 +25°C° 0 mm 2 m/s 761 mmHg 49%
    11:00 +26°C° 0 mm 2 m/s 761 mmHg 47%
    12:00 +27°C° 0 mm 3 m/s 761 mmHg 45%
    13:00 +28°C° 0 mm 3 m/s 761 mmHg 43%
    14:00 +28°C° 0 mm 3 m/s 761 mmHg 44%
    15:00 +28°C° 0 mm 3 m/s 761 mmHg 45%
    16:00 +27°C° 0 mm 3 m/s 761 mmHg 46%
    17:00 +26°C° 0 mm 3 m/s 761 mmHg 53%
    18:00 +24°C° 0 mm 3 m/s 762 mmHg 60%
    19:00 +21°C° 0 mm 3 m/s 762 mmHg 66%
    20:00 +20°C° 0 mm 3 m/s 763 mmHg 73%
    21:00 +19°C° 0 mm 3 m/s 764 mmHg 79%
    22:00 +17°C° 0 mm 3 m/s 765 mmHg 86%
    23:00 +17°C° 0 mm 2 m/s 765 mmHg 86%

    Poimâine, 24 Februarie, Vineri

    Timp Temperatura Precipitaţii Vânt Presiune Umiditate
    00:00 +17°C° 0 mm 2 m/s 765 mmHg 86%
    01:00 +17°C° 0 mm 2 m/s 765 mmHg 86%
    02:00 +17°C° 0 mm 2 m/s 765 mmHg 85%
    03:00 +17°C° 0 mm 2 m/s 765 mmHg 84%
    04:00 +16°C° 0 mm 2 m/s 765 mmHg 83%
    05:00 +16°C° 0 mm 2 m/s 765 mmHg 82%
    06:00 +16°C° 0 mm 2 m/s 765 mmHg 80%
    07:00 +16°C° 0 mm 2 m/s 766 mmHg 79%
    08:00 +17°C° 0 mm 2 m/s 766 mmHg 73%
    09:00 +18°C° 0 mm 3 m/s 766 mmHg 68%
    10:00 +19°C° 0 mm 3 m/s 766 mmHg 62%
    11:00 +19°C° 0 mm 3 m/s 766 mmHg 60%
    12:00 +20°C° 0 mm 3 m/s 766 mmHg 57%
    13:00 +20°C° 0 mm 3 m/s 766 mmHg 55%
    14:00 +20°C° 0 mm 3 m/s 766 mmHg 56%
    15:00 +20°C° 0 mm 4 m/s 765 mmHg 56%
    16:00 +20°C° 0 mm 4 m/s 765 mmHg 57%
    17:00 +19°C° 0 mm 4 m/s 766 mmHg 61%
    18:00 +18°C° 0 mm 3 m/s 766 mmHg 66%
    19:00 +17°C° 0 mm 3 m/s 766 mmHg 70%
    20:00 +17°C° 0 mm 3 m/s 767 mmHg 72%
    21:00 +16°C° 0 mm 3 m/s 767 mmHg 75%
    22:00 +16°C° 0 mm 3 m/s 767 mmHg 77%
    23:00 +16°C° 0 mm 3 m/s 767 mmHg 78%

    25 Februarie, Sâmbătă

    Timp Temperatura Precipitaţii Vânt Presiune Umiditate
    00:00 +16°C° 0 mm 3 m/s 767 mmHg 80%
    01:00 +14°C° 0 mm 3 m/s 766 mmHg 81%
    02:00 +14°C° 0 mm 3 m/s 766 mmHg 82%
    03:00 +14°C° 0 mm 3 m/s 766 mmHg 83%
    04:00 +14°C° 0 mm 3 m/s 766 mmHg 84%
    05:00 +14°C° 0 mm 3 m/s 766 mmHg 83%
    06:00 +14°C° 0 mm 3 m/s 766 mmHg 81%
    07:00 +14°C° 0 mm 3 m/s 766 mmHg 80%
    08:00 +16°C° 0 mm 3 m/s 766 mmHg 74%
    09:00 +17°C° 0 mm 3 m/s 767 mmHg 68%
    10:00 +18°C° 0 mm 3 m/s 767 mmHg 62%
    11:00 +19°C° 0 mm 3 m/s 766 mmHg 57%
    12:00 +20°C° 0 mm 3 m/s 766 mmHg 53%
    13:00 +21°C° 0 mm 3 m/s 765 mmHg 48%
    14:00 +21°C° 0 mm 4 m/s 765 mmHg 49%
    15:00 +21°C° 0 mm 4 m/s 764 mmHg 49%
    16:00 +21°C° 0 mm 4 m/s 764 mmHg 50%
    17:00 +20°C° 0 mm 3 m/s 764 mmHg 57%
    18:00 +19°C° 0 mm 3 m/s 765 mmHg 63%
    19:00 +18°C° 0 mm 3 m/s 765 mmHg 70%
    20:00 +17°C° 0 mm 3 m/s 765 mmHg 76%
    21:00 +16°C° 0 mm 2 m/s 765 mmHg 81%
    22:00 +15°C° 0 mm 2 m/s 765 mmHg 86%
    23:00 +15°C° 0 mm 2 m/s 765 mmHg 89%

    26 Februarie, Duminică

    Timp Temperatura Precipitaţii Vânt Presiune Umiditate
    00:00 +14°C° 0 mm 2 m/s 765 mmHg 92%
    01:00 +14°C° 0 mm 2 m/s 765 mmHg 94%
    02:00 +14°C° 0 mm 2 m/s 765 mmHg 94%
    03:00 +14°C° 0 mm 2 m/s 765 mmHg 95%
    04:00 +14°C° 0 mm 2 m/s 764 mmHg 95%
    05:00 +14°C° 0 mm 1 m/s 765 mmHg 93%
    06:00 +15°C° 0 mm 1 m/s 765 mmHg 92%
    07:00 +15°C° 0 mm 1 m/s 766 mmHg 90%
    08:00 +19°C° 0 mm 1 m/s 766 mmHg 77%
    09:00 +22°C° 0 mm 1 m/s 766 mmHg 63%
    10:00 +25°C° 0 mm 1 m/s 766 mmHg 50%
    11:00 +27°C° 0 mm 1 m/s 765 mmHg 46%
    12:00 +28°C° 0 mm 1 m/s 765 mmHg 42%
    13:00 +30°C° 0 mm 1 m/s 764 mmHg 38%
    14:00 +30°C° 0 mm 2 m/s 764 mmHg 38%
    15:00 +30°C° 0 mm 2 m/s 764 mmHg 38%
    16:00 +29°C° 0 mm 2 m/s 763 mmHg 38%
    17:00 +28°C° 0 mm 2 m/s 763 mmHg 43%
    18:00 +26°C° 0 mm 2 m/s 764 mmHg 49%
    19:00 +24°C° 0 mm 2 m/s 764 mmHg 55%
    20:00 +21°C° 0 mm 2 m/s 764 mmHg 63%
    21:00 +19°C° 0 mm 2 m/s 765 mmHg 71%
    22:00 +17°C° 0 mm 2 m/s 765 mmHg 79%
    23:00 +17°C° 0 mm 2 m/s 765 mmHg 82%

    27 Februarie, Luni

    Timp Temperatura Precipitaţii Vânt Presiune Umiditate
    00:00 +16°C° 0 mm 2 m/s 765 mmHg 84%
    01:00 +16°C° 0 mm 1 m/s 765 mmHg 87%
    02:00 +16°C° 0 mm 1 m/s 765 mmHg 84%
    03:00 +17°C° 0 mm 2 m/s 765 mmHg 80%
    04:00 +17°C° 0 mm 2 m/s 765 mmHg 76%
    05:00 +18°C° 0 mm 2 m/s 766 mmHg 73%
    06:00 +19°C° 0 mm 2 m/s 766 mmHg 70%
    07:00 +19°C° 0 mm 3 m/s 767 mmHg 67%
    08:00 +22°C° 0 mm 3 m/s 766 mmHg 60%
    09:00 +25°C° 0 mm 3 m/s 766 mmHg 53%
    10:00 +27°C° 0 mm 3 m/s 766 mmHg 46%
    11:00 +29°C° 0 mm 2 m/s 766 mmHg 41%
    12:00 +31°C° 0 mm 2 m/s 765 mmHg 36%
    13:00 +32°C° 0 mm 1 m/s 765 mmHg 31%
    14:00 +33°C° 0 mm 1 m/s 764 mmHg 30%
    15:00 +33°C° 0 mm 1 m/s 763 mmHg 28%
    16:00 +34°C° 0 mm 2 m/s 763 mmHg 27%
    17:00 +30°C° 0 mm 2 m/s 763 mmHg 36%
    18:00 +27°C° 0 mm 2 m/s 763 mmHg 46%
    19:00 +24°C° 0 mm 2 m/s 763 mmHg 56%
    20:00 +23°C° 0 mm 2 m/s 763 mmHg 60%
    21:00 +21°C° 0 mm 2 m/s 764 mmHg 64%
    22:00 +19°C° 0 mm 2 m/s 764 mmHg 69%
    23:00 +20°C° 0 mm 2 m/s 764 mmHg 67%
    Arată mai mult